Regional Weather Roundup
Issued by NWS Green Bay, WI

Home | Current Version | Previous Version | Text Only | Print | Product List | Glossary On
Versions: 1 2 3 4 5 6 7 8 9 10 11 12 13 14 15 16 17 18 19 20 21 22 23 24 25 26 27 28 29 30 31 32 33 34 35 36 37 38 39 40 41 42 43 44 45 46 47 48 49 50
894
ASUS43 KGRB 242200
RWRGRB

NORTH-CENTRAL AND NORTHEAST WISCONSIN REGIONAL WEATHER ROUNDUP
NATIONAL WEATHER SERVICE GREEN BAY WI
500 PM CDT THU MAY 24 2018

WIZ005-009-010>012-018-019-242300-
NORTH CENTRAL WISCONSIN

CITY           SKY/WX    TMP DP  RH WIND       PRES   REMARKS
IRONWOOD       FAIR      82  66  58 S8        29.95F
MANITOWISH WTR NOT AVBL
ARBOR VITAE    NOT AVBL
EAGLE RIVER    FAIR      81  60  47 S6        29.99F
LAND O LAKES   NOT AVBL
RHINELANDER    FAIR      85  64  49 SW13G20   30.01F
PHILLIPS       NOT AVBL
ANTIGO         FAIR      80  61  52 S9        30.02F
TOMAHAWK       NOT AVBL
MERRILL        NOT AVBL
$$

WIZ013-073-242300-
NORTHEAST WISCONSIN

CITY           SKY/WX    TMP DP  RH WIND       PRES   REMARKS
IRON MOUNTAIN  PTSUNNY   81  63  54 S8        29.98F
MARINETTE      FAIR      77  55  46 S15       30.00F
$$

WIZ017-030-035>037-045-242300-
CENTRAL WISCONSIN

CITY           SKY/WX    TMP DP  RH WIND       PRES   REMARKS
MEDFORD        NOT AVBL
WAUSAU         FAIR      85  60  42 S16       29.98F
MOSINEE        PTSUNNY   84  63  48 S9G20     30.01F
MARSHFIELD     FAIR      86  62  44 S14G24    29.98F
WISC RAPIDS    FAIR      87  60  40 S16       30.01F
STEVENS POINT  NOT AVBL
WAUPACA        NOT AVBL
SHAWANO        FAIR      86  59  40 S9        29.99F
CLINTONVILLE   FAIR      86  58  37 S13G20    30.00F
WAUTOMA        FAIR      86  61  42 S10       30.01F
$$

WIZ038-039-048-051-242300-
FOX VALLEY

CITY           SKY/WX    TMP DP  RH WIND       PRES   REMARKS
NWS GREEN BAY  FAIR      83  61  47 S9        30.02F
APPLETON       PTSUNNY   82  54  36 S13       30.03F
OSHKOSH        FAIR      84  62  47 S14       30.03F
FOND DU LAC    FAIR      84  59  42 SW10      30.04F
$$

WIZ022-050-052-242300-
EAST CENTRAL WISCONSIN

CITY           SKY/WX    TMP DP  RH WIND       PRES   REMARKS
EPHRAIM        NOT AVBL
WASHINGTON ISL NOT AVBL
STURGEON BAY   FAIR      76  55  48 S18       30.03F
MANITOWOC      FAIR      73  54  51 S17       30.06F
SHEBOYGAN      FAIR      77  57  50 S9        30.07F
$$

LMZ563-521-522-541>543-242300-
LAKESHORE

STATION/POSITION TIME  TEMP    WIND        PRES    VSBY  WAVE
                       AIR SEA DIR/SP/G                  HT/PER
                 (UTC) (F)     (DEG/KT/KT) (MB)    (MI)  (FT/S)
SHEBOYGAN LKSHOR 2100   57     170/ 19/ 20 1018.5F
KEWAUNEE LKSHORE 2130   51     170/ 11/ 12 1017.6F
NORTHPORT PIER   2140   65     160/  5/  7 1016.9F
N MID LAKE BUOY  2140   43 38  190/  8/  8 1017.6F
SISTER BAY LKSHO 2127   78     180/ 12/ 17   N/A
MENOMINEE LKSHOR 2130   63     140/ 14/ 15 1016.1F
$$




USA.gov is the U.S. government's official web portal to all federal, state and local government web resources and services.